Weather History for Saginaw Browne, MI

Change the Weather History Date:

Sunday, January 19, 2014

  Actual Average (KMBS) Record (KMBS)
Temperature  
Mean Temperature 21 °F 22 °F  
Max Temperature 30 °F 29 °F 42 °F (2013)
Min Temperature 12 °F 15 °F -2 °F (1997)
Degree Days  
Heating Degree Days 44    
Month to date heating degree days  
Since 1 July heating degree days  
Cooling Degree Days 0    
Month to date cooling degree days  
Year to date cooling degree days  
Moisture  
Dew Point 19 °F    
Average Humidity 85    
Maximum Humidity 93    
Minimum Humidity 75    
Precipitation  
Precipitation 0.00 in 0.05 in 0.04 in (2000)
Month to date precipitation 1.14  
Year to date precipitation 1.14  
Snow  
Snow 0.00 in - - ()
Month to date snowfall  
Since 1 July snowfall  
Snow Depth -    
Sea Level Pressure  
Sea Level Pressure 29.56 in    
Wind  
Wind Speed 14 mph (SW)    
Max Wind Speed 30 mph    
Max Gust Speed 39 mph    
Visibility 8 miles    
Events Snow    
T = Trace of Precipitation, MM = Missing Value Source: NWS Daily Summary

Daily Weather History Graph

Daily Weather History Graph

Search for Another Location

Airport:

Trip Planner

Search our weather history database for the weather conditions in past years. The results will help you decide how hot, cold, wet, or windy it might be!

Date:

Astronomy

Jan. 19, 2014 Rise Set
Actual Time 8:02 AM EST 5:29 PM EST
Civil Twilight 7:31 AM EST 6:01 PM EST
Nautical Twilight 6:56 AM EST 6:36 PM EST
Astronomical Twilight 6:22 AM EST 7:10 PM EST
Moon 9:14 PM EST (1/19) 9:25 AM EST (1/19)
Length of Visible Light 10h 29m
Length of Day
9h 27m
Waning Gibbous, 89% of the Moon is Illuminated
Jan 19
Waning Gibbous
Jan 24
Last Quarter
Jan 30
New
Feb 6
First Quarter
Feb 14
Full

Hourly Weather History & Observations

Time (EST) Temp. Windchill Dew Point Humidity Pressure Visibility Wind Dir Wind Speed Gust Speed Precip Events Conditions
12:15 AM 19.4 °F 7.9 °F 14.0 °F 80% 29.78 in 10.0 mi SW 10.4 mph - N/A   Overcast
12:35 AM 17.6 °F 3.7 °F 14.0 °F 86% 29.78 in 10.0 mi SW 13.8 mph - N/A   Overcast
12:55 AM 17.6 °F 6.4 °F 14.0 °F 86% 29.77 in 10.0 mi SW 9.2 mph - N/A   Overcast
1:15 AM 17.6 °F 5.7 °F 14.0 °F 86% 29.74 in 10.0 mi SW 10.4 mph - N/A   Overcast
1:35 AM 17.6 °F 5.0 °F 12.2 °F 79% 29.73 in 10.0 mi SW 11.5 mph - N/A   Overcast
1:55 AM 15.8 °F 4.2 °F 12.2 °F 86% 29.73 in 10.0 mi SW 9.2 mph - N/A   Scattered Clouds
2:15 AM 14.0 °F 1.2 °F 12.2 °F 93% 29.73 in 10.0 mi SW 10.4 mph - N/A   Clear
2:35 AM 14.0 °F 1.2 °F 10.4 °F 86% 29.72 in 10.0 mi SW 10.4 mph - N/A   Clear
2:55 AM 14.0 °F 1.2 °F 12.2 °F 93% 29.72 in 7.0 mi SW 10.4 mph - N/A   Clear
3:15 AM 14.0 °F 0.5 °F 12.2 °F 93% 29.71 in 7.0 mi SW 11.5 mph - N/A   Clear
3:34 AM 14.0 °F 1.2 °F 12.2 °F 93% 29.71 in 7.0 mi SW 10.4 mph - N/A   Clear
3:55 AM 12.2 °F -1.8 °F 10.4 °F 92% 29.69 in 7.0 mi SW 11.5 mph - N/A   Clear
4:15 AM 12.2 °F -1.8 °F 10.4 °F 92% 29.68 in 7.0 mi SW 11.5 mph - N/A   Clear
4:34 AM 12.2 °F -1.0 °F 10.4 °F 92% 29.69 in 7.0 mi SW 10.4 mph - N/A   Clear
4:55 AM 14.0 °F -0.8 °F 12.2 °F 93% 29.67 in 7.0 mi SW 13.8 mph - N/A   Mostly Cloudy
5:15 AM 14.0 °F 0.5 °F 12.2 °F 93% 29.67 in 7.0 mi SW 11.5 mph - N/A Snow Light Snow
5:35 AM 14.0 °F 0.5 °F 12.2 °F 93% 29.66 in 7.0 mi SW 11.5 mph - N/A   Overcast
5:55 AM 14.0 °F -0.8 °F 12.2 °F 93% 29.64 in 7.0 mi SW 13.8 mph - N/A   Scattered Clouds
6:15 AM 15.8 °F 2.1 °F 12.2 °F 86% 29.63 in 10.0 mi SW 12.7 mph - N/A   Clear
6:35 AM 17.6 °F 3.2 °F 14.0 °F 86% 29.62 in 10.0 mi SW 15.0 mph - N/A   Scattered Clouds
6:55 AM 19.4 °F 5.0 °F 15.8 °F 86% 29.60 in 10.0 mi SW 16.1 mph - N/A   Scattered Clouds
7:15 AM 19.4 °F 4.5 °F 17.6 °F 93% 29.59 in 10.0 mi SW 17.3 mph - N/A   Scattered Clouds
7:34 AM 21.2 °F 6.4 °F 17.6 °F 86% 29.58 in 7.0 mi SW 18.4 mph 24.2 mph N/A   Mostly Cloudy
7:55 AM 21.2 °F 5.6 °F 19.4 °F 93% 29.57 in 7.0 mi SW 20.7 mph - N/A   Scattered Clouds
8:15 AM 21.2 °F 5.2 °F 19.4 °F 93% 29.56 in 5.0 mi SW 21.9 mph 27.6 mph N/A   Scattered Clouds
8:34 AM 23.0 °F 8.3 °F 19.4 °F 86% 29.54 in 4.0 mi SW 19.6 mph 25.3 mph N/A Snow Light Snow
8:55 AM 23.0 °F 8.0 °F 19.4 °F 86% 29.53 in 4.0 mi SW 20.7 mph 29.9 mph N/A   Clear
9:15 AM 23.0 °F 6.9 °F 21.2 °F 93% 29.51 in 5.0 mi SW 24.2 mph 29.9 mph N/A   Scattered Clouds
9:34 AM 23.0 °F 6.6 °F 21.2 °F 93% 29.51 in 3.0 mi SW 25.3 mph 33.4 mph N/A   Mist
9:55 AM 24.8 °F 10.0 °F 21.2 °F 86% 29.51 in 4.0 mi SW 21.9 mph 32.2 mph N/A   Clear
10:15 AM 26.6 °F 11.7 °F 21.2 °F 80% 29.50 in 5.0 mi SW 24.2 mph 33.4 mph N/A   Haze
10:35 AM 26.6 °F 10.8 °F 21.2 °F 80% 29.49 in 3.0 mi SW 27.6 mph 35.7 mph N/A   Haze
10:55 AM 26.6 °F 11.7 °F 21.2 °F 80% 29.49 in 5.0 mi SW 24.2 mph 33.4 mph N/A   Haze
11:15 AM 26.6 °F 11.1 °F 21.2 °F 80% 29.48 in 3.0 mi SW 26.5 mph 35.7 mph N/A   Haze
11:35 AM 26.6 °F 11.1 °F 21.2 °F 80% 29.48 in 3.0 mi SW 26.5 mph 36.8 mph N/A   Haze
11:55 AM 26.6 °F 11.1 °F 21.2 °F 80% 29.48 in 4.0 mi SW 26.5 mph 34.5 mph N/A   Haze
12:15 PM 26.6 °F 10.3 °F 21.2 °F 80% 29.48 in 4.0 mi WSW 29.9 mph 39.1 mph N/A   Haze
12:35 PM 26.6 °F 11.1 °F 21.2 °F 80% 29.48 in 4.0 mi WSW 26.5 mph 36.8 mph N/A   Haze
12:55 PM 26.6 °F 11.7 °F 21.2 °F 80% 29.47 in 4.0 mi SW 24.2 mph 35.7 mph N/A   Haze
1:15 PM 26.6 °F 13.8 °F 21.2 °F 80% 29.47 in 3.0 mi SW 17.3 mph 32.2 mph N/A   Haze
1:35 PM 26.6 °F 12.4 °F 21.2 °F 80% 29.47 in 5.0 mi SW 21.9 mph 33.4 mph N/A   Haze
1:55 PM 26.6 °F 12.4 °F 21.2 °F 80% 29.47 in 5.0 mi SW 21.9 mph 29.9 mph N/A   Clear
2:15 PM 26.6 °F 12.0 °F 21.2 °F 80% 29.47 in 7.0 mi WSW 23.0 mph 29.9 mph N/A   Mostly Cloudy
2:35 PM 26.6 °F 13.1 °F 21.2 °F 80% 29.47 in 10.0 mi SW 19.6 mph 27.6 mph N/A   Overcast
2:55 PM 26.6 °F 13.1 °F 21.2 °F 80% 29.48 in 10.0 mi SW 19.6 mph 25.3 mph N/A   Overcast
3:15 PM 26.6 °F 13.8 °F 21.2 °F 80% 29.48 in 10.0 mi SW 17.3 mph - N/A   Overcast
3:35 PM 26.6 °F 14.3 °F 21.2 °F 80% 29.49 in 10.0 mi SW 16.1 mph - N/A   Overcast
3:55 PM 26.6 °F 15.2 °F 23.0 °F 86% 29.49 in 10.0 mi SW 13.8 mph 20.7 mph N/A   Overcast
4:15 PM 26.6 °F 14.7 °F 23.0 °F 86% 29.49 in 10.0 mi SW 15.0 mph - N/A   Overcast
4:35 PM 26.6 °F 15.7 °F 23.0 °F 86% 29.50 in 10.0 mi SW 12.7 mph 18.4 mph N/A   Overcast
4:55 PM 26.6 °F 14.7 °F 23.0 °F 86% 29.50 in 10.0 mi SW 15.0 mph 19.6 mph N/A   Overcast
5:15 PM 28.4 °F 18.0 °F 23.0 °F 80% 29.51 in 10.0 mi SW 12.7 mph - N/A   Overcast
5:35 PM 28.4 °F 17.5 °F 23.0 °F 80% 29.51 in 10.0 mi SW 13.8 mph - N/A   Overcast
5:55 PM 28.4 °F 18.0 °F 23.0 °F 80% 29.52 in 10.0 mi SW 12.7 mph - N/A   Overcast
6:15 PM 28.4 °F 17.5 °F 23.0 °F 80% 29.52 in 10.0 mi SW 13.8 mph - N/A   Overcast
6:35 PM 28.4 °F 18.5 °F 23.0 °F 80% 29.52 in 10.0 mi SW 11.5 mph - N/A   Overcast
6:55 PM 28.4 °F 19.1 °F 23.0 °F 80% 29.53 in 10.0 mi SW 10.4 mph - N/A   Overcast
7:14 PM 28.4 °F 19.1 °F 23.0 °F 80% 29.52 in 10.0 mi SW 10.4 mph - N/A   Overcast
7:35 PM 28.4 °F 19.1 °F 24.8 °F 86% 29.53 in 10.0 mi SW 10.4 mph - N/A   Overcast
7:55 PM 28.4 °F 19.7 °F 24.8 °F 86% 29.53 in 10.0 mi SW 9.2 mph - N/A   Overcast
8:14 PM 28.4 °F 20.4 °F 24.8 °F 86% 29.53 in 10.0 mi SW 8.1 mph - N/A   Overcast
8:35 PM 28.4 °F 19.7 °F 24.8 °F 86% 29.52 in 10.0 mi SSW 9.2 mph - N/A   Overcast
8:55 PM 28.4 °F 19.7 °F 24.8 °F 86% 29.52 in 10.0 mi SSW 9.2 mph - N/A   Overcast
9:14 PM 28.4 °F 18.5 °F 23.0 °F 80% 29.51 in 10.0 mi SSW 11.5 mph - N/A   Overcast
9:35 PM 28.4 °F 19.1 °F 23.0 °F 80% 29.51 in 10.0 mi SW 10.4 mph - N/A   Overcast
9:55 PM 28.4 °F 17.5 °F 23.0 °F 80% 29.51 in 10.0 mi SW 13.8 mph - N/A   Overcast
10:15 PM 28.4 °F 19.7 °F 23.0 °F 80% 29.50 in 10.0 mi SW 9.2 mph - N/A   Overcast
10:35 PM 28.4 °F 19.7 °F 23.0 °F 80% 29.50 in 10.0 mi SW 9.2 mph - N/A   Overcast
10:55 PM 30.2 °F 23.4 °F 23.0 °F 75% 29.50 in 10.0 mi SW 6.9 mph - N/A   Overcast
11:15 PM 30.2 °F 21.9 °F 24.8 °F 80% 29.49 in 10.0 mi SW 9.2 mph - N/A   Overcast
11:35 PM 28.4 °F 20.4 °F 26.6 °F 93% 29.49 in 5.0 mi SW 8.1 mph - N/A   Overcast
11:55 PM 28.4 °F 21.2 °F 26.6 °F 93% 29.49 in 5.0 mi SW 6.9 mph - N/A   Overcast